| time (UTC) | temp C | wind direction | speed KPH | gust KPH | rain 1hr cm | rain 24hr cm | rain mn cm | humidity % | barometer mb |
| 20260510213552 | 18 | 13 | 0.0 | 11.3 | 0.00 | 0.00 | 0.00 | 35 | 1020.0 |
| 20260510213029 | 18 | 6 | 1.6 | 12.9 | 0.00 | 0.00 | 0.00 | 37 | 1020.0 |
| 20260510212502 | 18 | 30 | 3.2 | 8.0 | 0.00 | 0.00 | 0.00 | 36 | 1019.9 |
| 20260510212043 | 18 | 18 | 3.2 | 8.0 | 0.00 | 0.00 | 0.00 | 35 | 1020.0 |
| 20260510211521 | 18 | 345 | 0.0 | 8.0 | 0.00 | 0.00 | 0.00 | 38 | 1020.0 |
| 20260510211101 | 18 | 15 | 1.6 | 8.0 | 0.00 | 0.00 | 0.00 | 36 | 1020.1 |
| 20260510210539 | 18 | 356 | 1.6 | 9.7 | 0.00 | 0.00 | 0.00 | 36 | 1020.1 |
| 20260510210014 | 18 | 3 | 0.0 | 9.7 | 0.00 | 0.00 | 0.00 | 36 | 1020.1 |
| 20260510205551 | 18 | 337 | 1.6 | 9.7 | 0.00 | 0.00 | 0.00 | 35 | 1020.2 |
| 20260510205027 | 18 | 31 | 4.8 | 11.3 | 0.00 | 0.00 | 0.00 | 35 | 1020.2 |
| 20260510204506 | 18 | 345 | 1.6 | 16.1 | 0.00 | 0.00 | 0.00 | 35 | 1020.3 |
| 20260510204044 | 18 | 30 | 6.4 | 16.1 | 0.00 | 0.00 | 0.00 | 34 | 1020.4 |
| 20260510203520 | 18 | 342 | 0.0 | 8.0 | 0.00 | 0.00 | 0.00 | 36 | 1020.3 |
| 20260510203100 | 18 | 26 | 1.6 | 9.7 | 0.00 | 0.00 | 0.00 | 35 | 1020.3 |
| 20260510202535 | 18 | 4 | 3.2 | 9.7 | 0.00 | 0.00 | 0.00 | 36 | 1020.4 |
| 20260510202011 | 18 | 41 | 1.6 | 9.7 | 0.00 | 0.00 | 0.00 | 35 | 1020.4 |
| 20260510201556 | 18 | 348 | 1.6 | 6.4 | 0.00 | 0.00 | 0.00 | 35 | 1020.5 |
| 20260510201032 | 18 | 359 | 0.0 | 4.8 | 0.00 | 0.00 | 0.00 | 37 | 1020.6 |
| 20260510200504 | 18 | 334 | 0.0 | 4.8 | 0.00 | 0.00 | 0.00 | 37 | 1020.7 |
| 20260510200045 | 18 | 316 | 0.0 | 8.0 | 0.00 | 0.00 | 0.00 | 36 | 1020.7 |
| 20260510195519 | 18 | 342 | 3.2 | 8.0 | 0.00 | 0.00 | 0.00 | 35 | 1020.7 |
| 20260510195101 | 18 | 10 | 0.0 | 4.8 | 0.00 | 0.00 | 0.00 | 37 | 1020.8 |
| 20260510194542 | 18 | 15 | 0.0 | 4.8 | 0.00 | 0.00 | 0.00 | 38 | 1020.9 |
| 20260510194014 | 18 | 4 | 0.0 | 4.8 | 0.00 | 0.00 | 0.00 | 35 | 1020.8 |
| 20260510193556 | 18 | 339 | 0.0 | 6.4 | 0.00 | 0.00 | 0.00 | 35 | 1020.8 |
| 20260510193035 | 18 | 341 | 1.6 | 6.4 | 0.00 | 0.00 | 0.00 | 36 | 1020.9 |
| 20260510192514 | 18 | 17 | 0.0 | 6.4 | 0.00 | 0.00 | 0.00 | 36 | 1020.9 |
| 20260510192048 | 18 | 317 | 1.6 | 11.3 | 0.00 | 0.00 | 0.00 | 36 | 1020.8 |
| 20260510191523 | 18 | 38 | 3.2 | 11.3 | 0.00 | 0.00 | 0.00 | 35 | 1020.8 |
| 20260510191103 | 18 | 350 | 3.2 | 9.7 | 0.00 | 0.00 | 0.00 | 35 | 1020.7 |
| 20260510190539 | 18 | 347 | 0.0 | 9.7 | 0.00 | 0.00 | 0.00 | 37 | 1020.7 |
| 20260510190030 | 18 | 25 | 3.2 | 9.7 | 0.00 | 0.00 | 0.00 | 36 | 1020.7 |
| 20260510185557 | 18 | 27 | 3.2 | 9.7 | 0.00 | 0.00 | 0.00 | 36 | 1020.7 |
| 20260510185035 | 18 | 27 | 1.6 | 8.0 | 0.00 | 0.00 | 0.00 | 40 | 1020.7 |
| 20260510184511 | 17 | 10 | 1.6 | 9.7 | 0.00 | 0.00 | 0.00 | 36 | 1020.7 |
| 20260510184050 | 17 | 336 | 3.2 | 8.0 | 0.00 | 0.00 | 0.00 | 36 | 1020.7 |
| 20260510183529 | 17 | 350 | 1.6 | 9.7 | 0.00 | 0.00 | 0.00 | 35 | 1020.6 |
| 20260510183002 | 17 | 340 | 3.2 | 9.7 | 0.00 | 0.00 | 0.00 | 36 | 1020.6 |
| 20260510182544 | 17 | 325 | 3.2 | 8.0 | 0.00 | 0.00 | 0.00 | 36 | 1020.6 |
| 20260510182018 | 17 | 360 | 0.0 | 8.0 | 0.00 | 0.00 | 0.00 | 35 | 1020.9 |
| 20260510181559 | 17 | 24 | 0.0 | 9.7 | 0.00 | 0.00 | 0.00 | 35 | 1021.0 |
| 20260510181034 | 17 | 31 | 4.8 | 12.9 | 0.00 | 0.00 | 0.00 | 33 | 1020.9 |
| 20260510180510 | 17 | 355 | 3.2 | 12.9 | 0.00 | 0.00 | 0.00 | 35 | 1020.8 |
| 20260510180104 | 18 | 13 | 4.8 | 11.3 | 0.00 | 0.00 | 0.00 | 33 | 1020.6 |
| 20260510175528 | 17 | 355 | 3.2 | 9.7 | 0.00 | 0.00 | 0.00 | 35 | 1020.7 |
| 20260510175004 | 17 | 26 | 3.2 | 11.3 | 0.00 | 0.00 | 0.00 | 35 | 1020.8 |
| 20260510174545 | 17 | 349 | 0.0 | 11.3 | 0.00 | 0.00 | 0.00 | 35 | 1020.6 |
| 20260510174022 | 17 | 16 | 0.0 | 9.7 | 0.00 | 0.00 | 0.00 | 36 | 1020.6 |
| 20260510173602 | 17 | 339 | 4.8 | 11.3 | 0.00 | 0.00 | 0.00 | 34 | 1020.8 |
| 20260510173045 | 17 | 81 | 1.6 | 11.3 | 0.00 | 0.00 | 0.00 | 39 | 1020.8 |
| 20260510172513 | 17 | 321 | 1.6 | 9.7 | 0.00 | 0.00 | 0.00 | 38 | 1020.6 |
| 20260510172053 | 17 | 359 | 3.2 | 9.7 | 0.00 | 0.00 | 0.00 | 35 | 1020.8 |
| 20260510171531 | 17 | 338 | 3.2 | 6.4 | 0.00 | 0.00 | 0.00 | 36 | 1020.8 |
| 20260510171007 | 17 | 340 | 1.6 | 9.7 | 0.00 | 0.00 | 0.00 | 36 | 1020.8 |
| 20260510170548 | 17 | 330 | 1.6 | 9.7 | 0.00 | 0.00 | 0.00 | 36 | 1020.7 |
| 20260510170025 | 17 | 347 | 1.6 | 9.7 | 0.00 | 0.00 | 0.00 | 35 | 1020.7 |
| 20260510165503 | 17 | 14 | 3.2 | 11.3 | 0.00 | 0.00 | 0.00 | 36 | 1020.7 |
| 20260510165040 | 17 | 354 | 4.8 | 11.3 | 0.00 | 0.00 | 0.00 | 35 | 1020.6 |
| 20260510164519 | 17 | 352 | 3.2 | 12.9 | 0.00 | 0.00 | 0.00 | 37 | 1020.6 |
| 20260510164059 | 17 | 325 | 4.8 | 12.9 | 0.00 | 0.00 | 0.00 | 37 | 1020.5 |
| 20260510163535 | 16 | 28 | 3.2 | 16.1 | 0.00 | 0.00 | 0.00 | 38 | 1020.4 |
| 20260510163010 | 16 | 12 | 6.4 | 16.1 | 0.00 | 0.00 | 0.00 | 36 | 1020.4 |
| 20260510162551 | 16 | 26 | 3.2 | 14.5 | 0.00 | 0.00 | 0.00 | 37 | 1020.3 |
| 20260510162031 | 16 | 21 | 8.0 | 14.5 | 0.00 | 0.00 | 0.00 | 37 | 1020.4 |
| 20260510161503 | 16 | 338 | 3.2 | 12.9 | 0.00 | 0.00 | 0.00 | 40 | 1020.5 |
| 20260510161044 | 16 | 335 | 3.2 | 12.9 | 0.00 | 0.00 | 0.00 | 38 | 1020.5 |
| 20260510160521 | 16 | 352 | 3.2 | 8.0 | 0.00 | 0.00 | 0.00 | 39 | 1020.6 |
| 20260510160105 | 16 | 160 | 1.6 | 8.0 | 0.00 | 0.00 | 0.00 | 43 | 1020.6 |
| 20260510155537 | 16 | 17 | 1.6 | 9.7 | 0.00 | 0.00 | 0.00 | 41 | 1020.5 |
| 20260510155013 | 16 | 335 | 1.6 | 14.5 | 0.00 | 0.00 | 0.00 | 42 | 1020.5 |
| 20260510154555 | 16 | 354 | 3.2 | 14.5 | 0.00 | 0.00 | 0.00 | 42 | 1020.5 |
| 20260510154030 | 16 | 339 | 1.6 | 11.3 | 0.00 | 0.00 | 0.00 | 42 | 1020.5 |
| 20260510153506 | 15 | 330 | 0.0 | 11.3 | 0.00 | 0.00 | 0.00 | 45 | 1020.4 |
| 20260510153059 | 15 | 353 | 6.4 | 14.5 | 0.00 | 0.00 | 0.00 | 42 | 1020.3 |
| 20260510152522 | 15 | 349 | 4.8 | 14.5 | 0.00 | 0.00 | 0.00 | 44 | 1020.2 |
| 20260510152102 | 15 | 332 | 4.8 | 9.7 | 0.00 | 0.00 | 0.00 | 45 | 1020.2 |
| 20260510151539 | 15 | 5 | 3.2 | 9.7 | 0.00 | 0.00 | 0.00 | 45 | 1020.2 |
| 20260510151014 | 14 | 23 | 3.2 | 9.7 | 0.00 | 0.00 | 0.00 | 45 | 1020.1 |
| 20260510150555 | 14 | 351 | 3.2 | 6.4 | 0.00 | 0.00 | 0.00 | 48 | 1020.1 |
| 20260510150038 | 14 | 354 | 0.0 | 9.7 | 0.00 | 0.00 | 0.00 | 48 | 1020.0 |
| 20260510145507 | 13 | 349 | 1.6 | 9.7 | 0.00 | 0.00 | 0.00 | 48 | 1020.1 |
| 20260510145047 | 13 | 340 | 3.2 | 9.7 | 0.00 | 0.00 | 0.00 | 47 | 1020.2 |
| 20260510144529 | 13 | 347 | 3.2 | 9.7 | 0.00 | 0.00 | 0.00 | 50 | 1020.3 |
| 20260510144104 | 13 | 24 | 1.6 | 6.4 | 0.00 | 0.00 | 0.00 | 50 | 1020.3 |
| 20260510143540 | 13 | 339 | 0.0 | 6.4 | 0.00 | 0.00 | 0.00 | 49 | 1020.2 |
| 20260510143029 | 13 | 12 | 1.6 | 4.8 | 0.00 | 0.00 | 0.00 | 50 | 1020.3 |
| 20260510142558 | 13 | 356 | 1.6 | 8.0 | 0.00 | 0.00 | 0.00 | 49 | 1020.2 |
| 20260510142035 | 13 | 13 | 1.6 | 8.0 | 0.00 | 0.00 | 0.00 | 49 | 1020.1 |
| 20260510141510 | 13 | 339 | 0.0 | 6.4 | 0.00 | 0.00 | 0.00 | 50 | 1020.1 |
| 20260510141050 | 13 | 13 | 1.6 | 9.7 | 0.00 | 0.00 | 0.00 | 48 | 1020.0 |
| 20260510140527 | 13 | 28 | 3.2 | 9.7 | 0.00 | 0.00 | 0.00 | 47 | 1020.0 |
| 20260510140006 | 13 | 335 | 1.6 | 9.7 | 0.00 | 0.00 | 0.00 | 48 | 1019.9 |
| 20260510135544 | 13 | 31 | 1.6 | 9.7 | 0.00 | 0.00 | 0.00 | 49 | 1020.0 |
| 20260510135020 | 13 | 341 | 3.2 | 9.7 | 0.00 | 0.00 | 0.00 | 48 | 1019.9 |
| 20260510134601 | 13 | 350 | 1.6 | 9.7 | 0.00 | 0.00 | 0.00 | 49 | 1019.8 |
| 20260510134036 | 13 | 354 | 1.6 | 9.7 | 0.00 | 0.00 | 0.00 | 49 | 1019.7 |
| 20260510133512 | 12 | 38 | 3.2 | 9.7 | 0.00 | 0.00 | 0.00 | 48 | 1019.8 |
| 20260510133054 | 12 | 32 | 1.6 | 9.7 | 0.00 | 0.00 | 0.00 | 50 | 1019.7 |
| 20260510132531 | 12 | 40 | 3.2 | 9.7 | 0.00 | 0.00 | 0.00 | 50 | 1019.7 |
| 20260510132003 | 12 | 17 | 1.6 | 9.7 | 0.00 | 0.00 | 0.00 | 49 | 1019.6 |
| 20260510131553 | 12 | 40 | 1.6 | 9.7 | 0.00 | 0.00 | 0.00 | 49 | 1019.5 |
| 20260510131020 | 12 | 11 | 4.8 | 9.7 | 0.00 | 0.00 | 0.00 | 49 | 1019.4 |
| 20260510130602 | 12 | 338 | 3.2 | 8.0 | 0.00 | 0.00 | 0.00 | 48 | 1019.5 |
| 20260510130038 | 12 | 343 | 3.2 | 8.0 | 0.00 | 0.00 | 0.00 | 49 | 1019.5 |
| 20260510125515 | 12 | 2 | 0.0 | 4.8 | 0.00 | 0.00 | 0.00 | 49 | 1019.3 |
| 20260510125101 | 12 | 353 | 0.0 | 8.0 | 0.00 | 0.00 | 0.00 | 48 | 1019.1 |
| 20260510124534 | 12 | 344 | 1.6 | 9.7 | 0.00 | 0.00 | 0.00 | 47 | 1019.0 |
| 20260510124007 | 12 | 345 | 3.2 | 9.7 | 0.00 | 0.00 | 0.00 | 46 | 1018.8 |
| 20260510123548 | 12 | 340 | 1.6 | 8.0 | 0.00 | 0.00 | 0.00 | 47 | 1018.8 |
| 20260510123024 | 12 | 355 | 3.2 | 8.0 | 0.00 | 0.00 | 0.00 | 47 | 1018.7 |
| 20260510122601 | 12 | 23 | 1.6 | 6.4 | 0.00 | 0.00 | 0.00 | 47 | 1018.6 |
| 20260510122037 | 12 | 355 | 0.0 | 6.4 | 0.00 | 0.00 | 0.00 | 46 | 1018.5 |
| 20260510121517 | 12 | 359 | 3.2 | 9.7 | 0.00 | 0.00 | 0.00 | 46 | 1018.2 |
| 20260510121055 | 12 | 353 | 3.2 | 9.7 | 0.00 | 0.00 | 0.00 | 46 | 1017.9 |
| 20260510120529 | 12 | 1 | 1.6 | 8.0 | 0.00 | 0.00 | 0.00 | 46 | 1017.9 |
| 20260510120008 | 12 | 18 | 1.6 | 11.3 | 0.00 | 0.00 | 0.00 | 46 | 1017.8 |
| 20260510115545 | 13 | 357 | 3.2 | 11.3 | 0.00 | 0.00 | 0.00 | 45 | 1017.7 |
| 20260510115022 | 13 | 342 | 3.2 | 9.7 | 0.00 | 0.00 | 0.00 | 45 | 1017.8 |
| 20260510114604 | 13 | 342 | 3.2 | 9.7 | 0.00 | 0.00 | 0.00 | 46 | 1017.8 |
| 20260510114039 | 13 | 343 | 3.2 | 8.0 | 0.00 | 0.00 | 0.00 | 46 | 1017.6 |
| 20260510113515 | 13 | 348 | 1.6 | 8.0 | 0.00 | 0.00 | 0.00 | 47 | 1017.5 |
| 20260510113056 | 13 | 343 | 1.6 | 9.7 | 0.00 | 0.00 | 0.00 | 47 | 1017.4 |
| 20260510112533 | 13 | 334 | 3.2 | 9.7 | 0.00 | 0.00 | 0.00 | 46 | 1017.4 |
| 20260510112010 | 13 | 343 | 3.2 | 11.3 | 0.00 | 0.00 | 0.00 | 46 | 1017.5 |
| 20260510111551 | 13 | 349 | 3.2 | 11.3 | 0.00 | 0.00 | 0.00 | 47 | 1017.3 |
| 20260510111026 | 13 | 350 | 1.6 | 8.0 | 0.00 | 0.00 | 0.00 | 48 | 1017.3 |
| 20260510110502 | 13 | 62 | 3.2 | 11.3 | 0.00 | 0.00 | 0.00 | 48 | 1017.2 |
| 20260510110043 | 13 | 2 | 4.8 | 11.3 | 0.00 | 0.00 | 0.00 | 48 | 1017.1 |
| 20260510105519 | 13 | 337 | 4.8 | 8.0 | 0.00 | 0.00 | 0.00 | 48 | 1017.1 |
| 20260510105103 | 13 | 345 | 3.2 | 8.0 | 0.00 | 0.00 | 0.00 | 48 | 1017.1 |
| 20260510104536 | 13 | 328 | 3.2 | 6.4 | 0.00 | 0.00 | 0.00 | 48 | 1017.0 |
| 20260510104013 | 13 | 352 | 3.2 | 6.4 | 0.00 | 0.00 | 0.00 | 48 | 1016.9 |
| 20260510103552 | 13 | 22 | 3.2 | 6.4 | 0.00 | 0.00 | 0.00 | 48 | 1016.8 |
| 20260510103029 | 13 | 11 | 1.6 | 6.4 | 0.00 | 0.00 | 0.00 | 48 | 1016.9 |
| 20260510102504 | 13 | 6 | 1.6 | 8.0 | 0.00 | 0.00 | 0.00 | 48 | 1016.6 |
| 20260510102044 | 13 | 23 | 1.6 | 8.0 | 0.00 | 0.00 | 0.00 | 48 | 1016.5 |
| 20260510101519 | 14 | 341 | 1.6 | 8.0 | 0.00 | 0.00 | 0.00 | 48 | 1016.4 |
| 20260510101103 | 14 | 342 | 1.6 | 9.7 | 0.00 | 0.00 | 0.00 | 47 | 1016.4 |
| 20260510100537 | 14 | 12 | 3.2 | 9.7 | 0.00 | 0.00 | 0.00 | 47 | 1016.2 |
| 20260510100027 | 14 | 359 | 3.2 | 8.0 | 0.00 | 0.00 | 0.00 | 47 | 1016.2 |
| 20260510095553 | 14 | 1 | 3.2 | 8.0 | 0.00 | 0.00 | 0.00 | 47 | 1016.0 |
| 20260510095032 | 15 | 350 | 1.6 | 9.7 | 0.00 | 0.00 | 0.00 | 47 | 1016.1 |
| 20260510094506 | 15 | 354 | 1.6 | 9.7 | 0.00 | 0.00 | 0.00 | 47 | 1016.1 |
| 20260510094047 | 15 | 331 | 1.6 | 8.0 | 0.00 | 0.00 | 0.00 | 48 | 1015.8 |
| 20260510093523 | 15 | 351 | 3.2 | 8.0 | 0.00 | 0.00 | 0.00 | 48 | 1015.9 |
| 20260510093104 | 15 | 347 | 3.2 | 12.9 | 0.00 | 0.00 | 0.00 | 49 | 1015.8 |
| 20260510092540 | 15 | 356 | 4.8 | 12.9 | 0.00 | 0.00 | 0.00 | 49 | 1015.7 |
| 20260510092025 | 15 | 351 | 6.4 | 11.3 | 0.00 | 0.00 | 0.00 | 50 | 1015.7 |
| 20260510091604 | 15 | 345 | 4.8 | 11.3 | 0.00 | 0.00 | 0.00 | 52 | 1015.7 |
| 20260510091037 | 15 | 337 | 4.8 | 9.7 | 0.00 | 0.00 | 0.00 | 53 | 1015.4 |
| 20260510090515 | 15 | 6 | 3.2 | 8.0 | 0.00 | 0.00 | 0.00 | 54 | 1015.5 |
| 20260510085530 | 15 | 19 | 4.8 | 11.3 | 0.00 | 0.00 | 0.00 | 53 | 1015.7 |
| 20260510085005 | 15 | 1 | 3.2 | 12.9 | 0.00 | 0.00 | 0.00 | 53 | 1015.5 |
| 20260510084607 | 15 | 44 | 6.4 | 12.9 | 0.00 | 0.00 | 0.00 | 54 | 1015.5 |
| 20260510084026 | 15 | 7 | 3.2 | 11.3 | 0.00 | 0.00 | 0.00 | 56 | 1015.4 |
| 20260510083602 | 15 | 20 | 3.2 | 17.7 | 0.00 | 0.00 | 0.00 | 57 | 1015.4 |
| 20260510083039 | 15 | 332 | 4.8 | 17.7 | 0.00 | 0.00 | 0.00 | 57 | 1015.2 |
| 20260510082514 | 15 | 24 | 4.8 | 9.7 | 0.00 | 0.00 | 0.00 | 61 | 1015.1 |
| 20260510082055 | 15 | 354 | 4.8 | 9.7 | 0.00 | 0.00 | 0.00 | 63 | 1015.0 |
| 20260510081544 | 15 | 9 | 3.2 | 9.7 | 0.00 | 0.00 | 0.00 | 65 | 1014.9 |
| 20260510081009 | 15 | 25 | 3.2 | 6.4 | 0.00 | 0.00 | 0.00 | 67 | 1014.9 |
| 20260510080548 | 16 | 18 | 1.6 | 6.4 | 0.00 | 0.00 | 0.00 | 69 | 1015.0 |
| 20260510080028 | 16 | 11 | 0.0 | 4.8 | 0.00 | 0.00 | 0.00 | 69 | 1014.9 |
| 20260510075605 | 16 | 5 | 0.0 | 4.8 | 0.00 | 0.00 | 0.00 | 68 | 1014.9 |
| 20260510075041 | 16 | 359 | 0.0 | 6.4 | 0.00 | 0.00 | 0.00 | 67 | 1014.5 |
| 20260510074515 | 16 | 29 | 1.6 | 6.4 | 0.00 | 0.00 | 0.00 | 66 | 1014.4 |
| 20260510074058 | 16 | 359 | 1.6 | 6.4 | 0.00 | 0.00 | 0.00 | 66 | 1014.3 |
| 20260510073533 | 16 | 23 | 0.0 | 4.8 | 0.00 | 0.00 | 0.00 | 67 | 1014.4 |
| 20260510073009 | 16 | 13 | 0.0 | 3.2 | 0.00 | 0.00 | 0.00 | 66 | 1014.4 |
| 20260510072549 | 16 | 30 | 0.0 | 1.6 | 0.00 | 0.00 | 0.00 | 66 | 1014.3 |
| 20260510072027 | 16 | 30 | 0.0 | 3.2 | 0.00 | 0.00 | 0.00 | 65 | 1014.1 |
| 20260510071501 | 16 | 1 | 0.0 | 3.2 | 0.00 | 0.00 | 0.00 | 65 | 1014.0 |
| 20260510071040 | 16 | 356 | 0.0 | 1.6 | 0.00 | 0.00 | 0.00 | 64 | 1013.9 |
| 20260510070516 | 16 | 356 | 0.0 | 1.6 | 0.00 | 0.00 | 0.00 | 64 | 1013.9 |
| 20260510070058 | 17 | 356 | 0.0 | 1.6 | 0.00 | 0.00 | 0.00 | 63 | 1013.9 |
| 20260510065534 | 17 | 356 | 0.0 | 1.6 | 0.00 | 0.00 | 0.00 | 62 | 1013.6 |
| 20260510065014 | 17 | 356 | 0.0 | 1.6 | 0.00 | 0.00 | 0.00 | 61 | 1013.7 |
| 20260510064553 | 17 | 356 | 0.0 | 1.6 | 0.00 | 0.00 | 0.00 | 61 | 1013.7 |
| 20260510064026 | 17 | 356 | 0.0 | 1.6 | 0.00 | 0.00 | 0.00 | 61 | 1013.5 |
| 20260510063503 | 17 | 356 | 0.0 | 0.0 | 0.00 | 0.00 | 0.00 | 61 | 1013.4 |
| 20260510063048 | 17 | 356 | 0.0 | 1.6 | 0.00 | 0.00 | 0.00 | 60 | 1013.5 |
| 20260510062519 | 17 | 356 | 0.0 | 1.6 | 0.00 | 0.00 | 0.00 | 60 | 1013.7 |
| 20260510062100 | 17 | 356 | 0.0 | 0.0 | 0.00 | 0.00 | 0.00 | 60 | 1013.8 |
| 20260510061536 | 17 | 356 | 0.0 | 0.0 | 0.00 | 0.00 | 0.00 | 59 | 1013.9 |
| 20260510061012 | 17 | 356 | 0.0 | 1.6 | 0.00 | 0.00 | 0.00 | 59 | 1013.9 |
| 20260510060554 | 17 | 356 | 0.0 | 3.2 | 0.00 | 0.00 | 0.00 | 58 | 1013.8 |
| 20260510060030 | 17 | 356 | 0.0 | 3.2 | 0.00 | 0.00 | 0.00 | 57 | 1013.6 |
| 20260510055506 | 17 | 352 | 0.0 | 3.2 | 0.00 | 0.00 | 0.00 | 57 | 1013.5 |
| 20260510055050 | 17 | 352 | 0.0 | 3.2 | 0.00 | 0.00 | 0.00 | 57 | 1013.4 |
| 20260510054523 | 18 | 352 | 0.0 | 3.2 | 0.00 | 0.00 | 0.00 | 57 | 1013.2 |
| 20260510054102 | 18 | 352 | 0.0 | 3.2 | 0.00 | 0.00 | 0.00 | 57 | 1013.2 |
| 20260510053540 | 18 | 342 | 0.0 | 1.6 | 0.00 | 0.00 | 0.00 | 57 | 1013.4 |
| 20260510053014 | 18 | 342 | 0.0 | 1.6 | 0.00 | 0.00 | 0.00 | 56 | 1013.5 |
| 20260510052555 | 18 | 341 | 0.0 | 4.8 | 0.00 | 0.00 | 0.00 | 56 | 1013.5 |
| 20260510052031 | 18 | 325 | 0.0 | 4.8 | 0.00 | 0.00 | 0.00 | 53 | 1013.1 |
| 20260510051507 | 18 | 343 | 1.6 | 6.4 | 0.00 | 0.00 | 0.00 | 51 | 1013.0 |
| 20260510051151 | 18 | 328 | 0.0 | 8.0 | 0.00 | 0.00 | 0.00 | 51 | 1012.8 |
| 20260510050529 | 18 | 357 | 1.6 | 9.7 | 0.00 | 0.00 | 0.00 | 50 | 1012.5 |
| 20260510050111 | 19 | 340 | 1.6 | 9.7 | 0.00 | 0.00 | 0.00 | 51 | 1012.5 |
| 20260510045541 | 19 | 337 | 1.6 | 9.7 | 0.00 | 0.00 | 0.00 | 50 | 1012.1 |
| 20260510045018 | 19 | 319 | 1.6 | 9.7 | 0.00 | 0.00 | 0.00 | 50 | 1012.0 |
| 20260510044600 | 19 | 347 | 3.2 | 9.7 | 0.00 | 0.00 | 0.00 | 50 | 1011.9 |
| 20260510044031 | 19 | 357 | 0.0 | 8.0 | 0.00 | 0.00 | 0.00 | 50 | 1011.6 |
| 20260510043509 | 19 | 340 | 1.6 | 11.3 | 0.00 | 0.00 | 0.00 | 49 | 1011.5 |
| 20260510043103 | 19 | 10 | 1.6 | 11.3 | 0.00 | 0.00 | 0.00 | 49 | 1011.5 |
| 20260510042528 | 19 | 14 | 6.4 | 11.3 | 0.00 | 0.00 | 0.00 | 49 | 1011.6 |
| 20260510042002 | 19 | 340 | 4.8 | 9.7 | 0.00 | 0.00 | 0.00 | 50 | 1011.7 |
| 20260510041544 | 19 | 328 | 3.2 | 9.7 | 0.00 | 0.00 | 0.00 | 52 | 1011.7 |
| 20260510041021 | 19 | 333 | 1.6 | 6.4 | 0.00 | 0.00 | 0.00 | 56 | 1011.5 |
| 20260510040603 | 19 | 4 | 1.6 | 9.7 | 0.00 | 0.00 | 0.00 | 57 | 1011.6 |
| 20260510040036 | 19 | 334 | 3.2 | 11.3 | 0.00 | 0.00 | 0.00 | 59 | 1011.6 |
| 20260510035513 | 19 | 30 | 6.4 | 11.3 | 0.00 | 0.00 | 0.00 | 59 | 1011.5 |
| 20260510035055 | 19 | 8 | 3.2 | 8.0 | 0.00 | 0.00 | 0.00 | 62 | 1011.5 |
| 20260510034538 | 19 | 335 | 0.0 | 1.6 | 0.00 | 0.00 | 0.00 | 63 | 1011.5 |
| 20260510034007 | 20 | 25 | 0.0 | 0.0 | 0.00 | 0.00 | 0.00 | 59 | 1011.8 |
| 20260510033550 | 20 | 25 | 0.0 | 0.0 | 0.00 | 0.00 | 0.00 | 58 | 1012.0 |
| 20260510033022 | 20 | 25 | 0.0 | 0.0 | 0.00 | 0.00 | 0.00 | 56 | 1011.8 |
| 20260510032604 | 20 | 25 | 0.0 | 0.0 | 0.00 | 0.00 | 0.00 | 56 | 1011.6 |
| 20260510032040 | 19 | 25 | 0.0 | 0.0 | 0.00 | 0.00 | 0.00 | 56 | 1011.2 |
| 20260510031516 | 19 | 25 | 0.0 | 0.0 | 0.00 | 0.00 | 0.00 | 56 | 1011.1 |
| 20260510031058 | 19 | 25 | 0.0 | 0.0 | 0.00 | 0.00 | 0.00 | 55 | 1010.8 |
| 20260510030534 | 20 | 25 | 0.0 | 0.0 | 0.00 | 0.00 | 0.00 | 54 | 1010.8 |
| 20260510030008 | 20 | 25 | 0.0 | 0.0 | 0.00 | 0.00 | 0.00 | 54 | 1010.8 |
| 20260510025549 | 20 | 25 | 0.0 | 0.0 | 0.00 | 0.00 | 0.00 | 54 | 1010.6 |
| 20260510025025 | 20 | 25 | 0.0 | 0.0 | 0.00 | 0.00 | 0.00 | 53 | 1010.4 |
| 20260510024502 | 20 | 25 | 0.0 | 0.0 | 0.00 | 0.00 | 0.00 | 53 | 1010.4 |
| 20260510024042 | 20 | 25 | 0.0 | 0.0 | 0.00 | 0.00 | 0.00 | 53 | 1010.3 |
| 20260510023517 | 20 | 25 | 0.0 | 0.0 | 0.00 | 0.00 | 0.00 | 52 | 1010.1 |
| 20260510023058 | 20 | 25 | 0.0 | 0.0 | 0.00 | 0.00 | 0.00 | 51 | 1009.9 |
| 20260510022535 | 21 | 25 | 0.0 | 0.0 | 0.00 | 0.00 | 0.00 | 51 | 1009.8 |
| 20260510022011 | 21 | 25 | 0.0 | 0.0 | 0.00 | 0.00 | 0.00 | 51 | 1009.8 |
| 20260510021551 | 21 | 25 | 0.0 | 3.2 | 0.00 | 0.00 | 0.00 | 50 | 1009.7 |
| 20260510021027 | 21 | 25 | 0.0 | 3.2 | 0.00 | 0.00 | 0.00 | 49 | 1009.6 |
| 20260510020506 | 21 | 5 | 0.0 | 3.2 | 0.00 | 0.00 | 0.00 | 49 | 1009.6 |
| 20260510020048 | 21 | 352 | 1.6 | 4.8 | 0.00 | 0.00 | 0.00 | 49 | 1009.4 |
| 20260510015520 | 21 | 32 | 0.0 | 4.8 | 0.00 | 0.00 | 0.00 | 48 | 1009.5 |
| 20260510015101 | 21 | 6 | 0.0 | 4.8 | 0.00 | 0.00 | 0.00 | 49 | 1009.4 |
| 20260510014542 | 21 | 16 | 0.0 | 4.8 | 0.00 | 0.00 | 0.00 | 48 | 1009.3 |
| 20260510014015 | 22 | 358 | 0.0 | 6.4 | 0.00 | 0.00 | 0.00 | 48 | 1009.2 |
| 20260510013556 | 22 | 26 | 1.6 | 6.4 | 0.00 | 0.00 | 0.00 | 47 | 1009.1 |
| 20260510013031 | 22 | 44 | 1.6 | 6.4 | 0.00 | 0.00 | 0.00 | 47 | 1009.0 |
| 20260510012507 | 22 | 342 | 1.6 | 6.4 | 0.00 | 0.00 | 0.00 | 48 | 1009.0 |
| 20260510012050 | 22 | 15 | 0.0 | 3.2 | 0.00 | 0.00 | 0.00 | 48 | 1008.9 |
| 20260510011536 | 22 | 349 | 0.0 | 4.8 | 0.00 | 0.00 | 0.00 | 47 | 1008.9 |
| 20260510011105 | 22 | 20 | 0.0 | 4.8 | 0.00 | 0.00 | 0.00 | 47 | 1008.8 |
| 20260510010540 | 22 | 10 | 0.0 | 3.2 | 0.00 | 0.00 | 0.00 | 46 | 1008.8 |
| 20260510010018 | 22 | 10 | 0.0 | 3.2 | 0.00 | 0.00 | 0.00 | 46 | 1008.7 |
| 20260510005559 | 22 | 9 | 0.0 | 9.7 | 0.00 | 0.00 | 0.00 | 45 | 1008.6 |
| 20260510005036 | 23 | 9 | 3.2 | 9.7 | 0.00 | 0.00 | 0.00 | 44 | 1008.4 |
| 20260510004513 | 23 | 20 | 0.0 | 9.7 | 0.00 | 0.00 | 0.00 | 45 | 1008.4 |
| 20260510004053 | 23 | 41 | 0.0 | 9.7 | 0.00 | 0.00 | 0.00 | 44 | 1008.3 |
| 20260510003531 | 23 | 298 | 1.6 | 9.7 | 0.00 | 0.00 | 0.00 | 43 | 1008.3 |
| 20260510003008 | 23 | 343 | 0.0 | 6.4 | 0.00 | 0.00 | 0.00 | 43 | 1008.1 |
| 20260510002548 | 23 | 37 | 0.0 | 6.4 | 0.00 | 0.00 | 0.00 | 43 | 1007.9 |
| 20260510002024 | 23 | 15 | 1.6 | 6.4 | 0.00 | 0.00 | 0.00 | 43 | 1007.9 |
| 20260510001501 | 23 | 352 | 0.0 | 11.3 | 0.00 | 0.00 | 0.00 | 42 | 1007.8 |
| 20260510001042 | 24 | 9 | 4.8 | 11.3 | 0.00 | 0.00 | 0.00 | 41 | 1007.6 |
| 20260510000519 | 24 | 18 | 1.6 | 11.3 | 0.00 | 0.00 | 0.00 | 40 | 1007.6 |
| 20260510000107 | 24 | 7 | 1.6 | 11.3 | 0.00 | 0.00 | 0.00 | 40 | 1007.6 |
| 20260509235538 | 24 | 27 | 1.6 | 6.4 | 0.00 | 0.00 | 0.00 | 40 | 1007.6 |
| 20260509235015 | 24 | 330 | 0.0 | 9.7 | 0.00 | 0.00 | 0.00 | 40 | 1007.5 |
| 20260509234559 | 25 | 19 | 0.0 | 9.7 | 0.00 | 0.00 | 0.00 | 40 | 1007.6 |
| 20260509234027 | 25 | 320 | 0.0 | 17.7 | 0.00 | 0.00 | 0.00 | 39 | 1007.5 |
| 20260509233505 | 25 | 283 | 0.0 | 17.7 | 0.00 | 0.00 | 0.00 | 38 | 1007.5 |
| 20260509233047 | 25 | 62 | 1.6 | 11.3 | 0.00 | 0.00 | 0.00 | 36 | 1007.4 |
| 20260509232521 | 26 | 340 | 0.0 | 3.2 | 0.00 | 0.00 | 0.00 | 35 | 1007.2 |
| 20260509232101 | 26 | 285 | 0.0 | 1.6 | 0.00 | 0.00 | 0.00 | 33 | 1007.0 |
| 20260509231548 | 26 | 285 | 0.0 | 1.6 | 0.00 | 0.00 | 0.00 | 34 | 1006.9 |
| 20260509231022 | 26 | 285 | 0.0 | 1.6 | 0.00 | 0.00 | 0.00 | 33 | 1006.9 |
| 20260509230606 | 26 | 285 | 0.0 | 1.6 | 0.00 | 0.00 | 0.00 | 33 | 1006.8 |
| 20260509230039 | 26 | 285 | 0.0 | 3.2 | 0.00 | 0.00 | 0.00 | 35 | 1006.8 |
| 20260509225516 | 27 | 285 | 0.0 | 3.2 | 0.00 | 0.00 | 0.00 | 34 | 1006.8 |
| 20260509225056 | 27 | 268 | 0.0 | 1.6 | 0.00 | 0.00 | 0.00 | 34 | 1006.7 |
| 20260509224532 | 27 | 267 | 0.0 | 1.6 | 0.00 | 0.00 | 0.00 | 34 | 1006.7 |
| 20260509224008 | 27 | 268 | 0.0 | 3.2 | 0.00 | 0.00 | 0.00 | 34 | 1006.6 |
| 20260509223549 | 27 | 267 | 0.0 | 3.2 | 0.00 | 0.00 | 0.00 | 33 | 1006.6 |
| 20260509223026 | 27 | 281 | 1.6 | 3.2 | 0.00 | 0.00 | 0.00 | 33 | 1006.6 |
| 20260509222501 | 27 | 276 | 0.0 | 3.2 | 0.00 | 0.00 | 0.00 | 34 | 1006.6 |
| 20260509222045 | 27 | 276 | 0.0 | 3.2 | 0.00 | 0.00 | 0.00 | 33 | 1006.6 |
| 20260509221520 | 27 | 311 | 0.0 | 3.2 | 0.00 | 0.00 | 0.00 | 32 | 1006.6 |
| 20260509221100 | 27 | 285 | 0.0 | 4.8 | 0.00 | 0.00 | 0.00 | 32 | 1006.5 |
| 20260509220535 | 27 | 291 | 0.0 | 4.8 | 0.00 | 0.00 | 0.00 | 31 | 1006.5 |
| 20260509220011 | 28 | 279 | 1.6 | 3.2 | 0.00 | 0.00 | 0.00 | 31 | 1006.5 |
| 20260509215553 | 28 | 265 | 0.0 | 4.8 | 0.00 | 0.00 | 0.00 | 33 | 1006.5 |
| 20260509215032 | 28 | 264 | 0.0 | 4.8 | 0.00 | 0.00 | 0.00 | 32 | 1006.5 |
| 20260509214506 | 27 | 275 | 0.0 | 4.8 | 0.00 | 0.00 | 0.00 | 33 | 1006.5 |
| 20260509214046 | 27 | 300 | 0.0 | 1.6 | 0.00 | 0.00 | 0.00 | 35 | 1006.5 |